CST,Max TemperatureF,Mean TemperatureF,Min TemperatureF,Max Dew PointF,MeanDew PointF,Min DewpointF,Max Humidity, Mean Humidity, Min Humidity, Max Sea Level PressureIn, Mean Sea Level PressureIn, Min Sea Level PressureIn, Max VisibilityMiles, Mean VisibilityMiles, Min VisibilityMiles, Max Wind SpeedMPH, Mean Wind SpeedMPH, Max Gust SpeedMPH,PrecipitationIn, CloudCover, Events, WindDirDegrees
2013-11-1,47,45,43,43,41,40,93,87,79,29.73,29.51,29.25,10,9,4,17,11,25,0.01,8,Rain,281
2013-11-2,46,42,36,40,37,32,93,84,58,30.15,29.95,29.73,10,10,7,7,4,,0.00,8,Rain,342
2013-11-3,51,40,30,42,34,29,97,80,50,30.29,30.22,30.15,10,7,0,13,4,17,0.00,3,Fog,136
2013-11-4,54,48,43,45,39,36,83,71,53,30.20,30.10,30.01,10,10,10,21,11,26,0.00,4,Rain,169
2013-11-5,56,46,35,48,42,34,95,83,48,30.26,30.12,29.85,10,6,0,8,4,,0.10,5,Fog-Rain,32
2013-11-6,45,38,30,44,34,24,95,80,58,30.13,29.91,29.74,10,8,3,15,8,24,0.57,5,Rain,316
2013-11-7,42,33,24,28,24,21,93,73,42,30.21,30.16,30.13,10,10,7,15,5,20,0.10,3,,275
2013-11-8,43,34,24,36,29,23,96,81,63,30.25,30.11,29.79,10,6,1,13,4,20,0.00,4,Rain,152
2013-11-9,49,44,40,41,35,25,89,70,51,30.02,29.80,29.67,10,10,10,24,11,32,0.04,8,Rain,252
2013-11-10,47,44,40,32,28,25,69,56,43,30.27,30.17,30.03,10,10,10,17,10,24,0.00,5,,272
2013-11-11,41,33,25,34,19,6,88,58,37,30.55,30.26,30.04,10,10,5,20,8,26,0.00,5,Rain,322
2013-11-12,31,25,19,15,11,6,73,57,37,30.68,30.60,30.49,10,10,10,13,7,18,0.00,0,,281
2013-11-13,46,32,17,23,16,11,79,52,31,30.49,30.18,29.95,10,10,10,23,10,31,0.00,0,,216
2013-11-14,50,40,30,31,23,14,81,52,37,29.95,29.87,29.82,10,10,10,13,7,,0.00,2,,211
2013-11-15,56,42,27,35,31,25,92,72,39,29.90,29.86,29.83,10,10,10,8,2,,0.00,0,,197
2013-11-16,57,46,36,55,44,32,95,90,79,29.85,29.62,29.39,10,6,1,16,8,26,0.46,6,Rain,160
2013-11-17,58,50,40,55,46,30,96,86,63,29.58,29.36,29.19,10,7,0,24,8,39,0.28,7,Fog-Rain,255
2013-11-18,39,32,25,29,22,18,79,63,53,30.23,29.95,29.59,10,10,10,25,17,37,0.01,6,,283
2013-11-19,37,28,19,28,22,17,91,75,51,30.35,30.28,30.21,10,10,10,9,4,,0.00,0,,137
2013-11-20,41,36,32,35,30,26,93,75,56,30.21,30.15,30.09,10,9,3,20,8,24,0.01,7,Rain,146
2013-11-21,41,38,35,38,36,31,95,88,83,30.29,30.17,30.09,10,5,2,10,3,17,0.01,8,Rain,322
2013-11-22,36,31,26,31,20,10,89,65,39,30.46,30.40,30.29,10,9,2,15,9,22,0.00,3,Snow,298
2013-11-23,25,18,10,14,3,-3,71,53,35,30.68,30.59,30.39,10,10,10,20,11,25,0.00,2,,312
2013-11-24,27,17,7,4,1,-3,77,51,28,30.66,30.45,30.13,10,10,10,18,7,30,0.00,0,,226
2013-11-25,34,30,25,26,19,3,76,63,35,30.11,29.97,29.92,10,10,7,18,13,25,0.00,7,Snow,221
2013-11-26,36,24,13,26,11,1,72,53,34,30.21,30.07,29.95,10,10,3,16,9,26,0.00,5,Snow,302
2013-11-27,30,22,13,20,9,4,87,60,34,30.24,30.20,30.17,10,9,2,13,8,18,0.00,3,Snow,312
2013-11-28,27,20,13,20,16,9,87,75,60,30.48,30.26,30.13,10,9,3,9,5,,0.00,6,Snow,263
2013-11-29,30,18,7,19,14,3,88,75,57,30.59,30.49,30.29,10,10,10,9,2,,0.00,0,,153
2013-11-30,44,34,25,27,25,19,82,67,48,30.28,30.10,29.99,10,10,10,10,5,,0.00,4,,199